Falfurrias, TX

6:30 PM CST on November 11, 2019 (GMT -0600)
Falfurrias

Weather History for KBKS - August, 2019

Change the Weather History Date:

Friday, August 30, 2019

  Actual Average (KNQI) Record (KNQI)
Temperature  
Mean Temperature 90 °F -  
Max Temperature 101 °F 91 °F 107 °F (2012)
Min Temperature 78 °F 72 °F 69 °F (2015)
Cooling Degree Days 24    
Growing Degree Days 40 (Base 50)    
Moisture  
Dew Point 73 °F    
Average Humidity 65    
Maximum Humidity 91    
Minimum Humidity 29    
Precipitation  
Precipitation 0.00 in - - ()
Sea Level Pressure  
Sea Level Pressure 29.95 in    
Wind  
Wind Speed 5 mph ()    
Max Wind Speed 18 mph    
Max Gust Speed 24 mph    
Visibility 9.5 miles    
Events      
Averages and records for this station are not official NWS values.
T = Trace of Precipitation, MM = Missing Value Source: Averaged Metar Reports

Daily Weather History Graph

Daily Weather History Graph

Search for Another Location

Airport or City:

Astronomy

Aug. 30, 2019 Rise Set
Actual Time 7:10 AM CDT 7:55 PM CDT
Civil Twilight 6:46 AM CDT 8:18 PM CDT
Nautical Twilight 6:18 AM CDT 8:46 PM CDT
Astronomical Twilight 5:50 AM CDT 9:15 PM CDT
Moon 7:17 AM CDT (8/30) 8:32 PM CDT (8/30)
Length of Visible Light 13h 31m
Length of Day
12h 44m
New Moon, 0% of the Moon is Illuminated
Aug 30
New Moon
Sep 5
First Quarter
Sep 13
Full
Sep 21
Last Quarter
Sep 28
New

Hourly Weather History & Observations

Time (CDT) Temp. Heat Index Dew Point Humidity Pressure Visibility Wind Dir Wind Speed Gust Speed Precip Events Conditions
12:15 AM 82.6 °F 91.1 °F 77.0 °F 83% 29.98 in 10.0 mi ESE 3.5 mph - N/A   Clear
12:35 AM 81.9 °F 89.7 °F 77.0 °F 85% 29.98 in 10.0 mi East 3.5 mph - N/A   Clear
12:55 AM 81.5 °F 89.0 °F 77.0 °F 86% 29.98 in 10.0 mi Calm Calm - N/A   Clear
1:15 AM 80.8 °F 87.4 °F 76.8 °F 88% 29.98 in 10.0 mi ESE 3.5 mph - N/A   Clear
1:35 AM 81.0 °F 87.9 °F 77.0 °F 88% 29.98 in 10.0 mi SE 4.6 mph - N/A   Clear
1:55 AM 81.0 °F 87.7 °F 76.6 °F 87% 29.97 in 10.0 mi ESE 3.5 mph - N/A   Clear
2:15 AM 80.1 °F 85.5 °F 76.3 °F 88% 29.97 in 10.0 mi Calm Calm - N/A   Clear
2:35 AM 79.7 °F - 76.1 °F 89% 29.96 in 10.0 mi ESE 3.5 mph - N/A   Clear
2:55 AM 80.8 °F 87.4 °F 77.0 °F 88% 29.96 in 10.0 mi SE 4.6 mph - N/A   Clear
3:15 AM 81.0 °F 87.7 °F 76.6 °F 87% 29.96 in 10.0 mi SSE 5.8 mph - N/A   Clear
3:35 AM 80.6 °F 86.8 °F 76.5 °F 87% 29.95 in 10.0 mi SSE 5.8 mph - N/A   Clear
3:55 AM 80.2 °F 86.0 °F 76.5 °F 88% 29.95 in 10.0 mi SSE 4.6 mph - N/A   Clear
4:15 AM 79.9 °F - 76.3 °F 89% 29.95 in 10.0 mi Calm Calm - N/A   Clear
4:35 AM 79.7 °F - 76.1 °F 89% 29.96 in 7.0 mi Calm Calm - N/A   Scattered Clouds
4:55 AM 79.3 °F - 76.1 °F 90% 29.95 in 7.0 mi SSE 3.5 mph - N/A   Clear
5:15 AM 79.3 °F - 76.3 °F 90% 29.95 in 7.0 mi SSE 3.5 mph - N/A   Clear
5:35 AM 79.3 °F - 76.3 °F 90% 29.96 in 7.0 mi Calm Calm - N/A   Clear
5:55 AM 79.2 °F - 76.1 °F 90% 29.96 in 7.0 mi Calm Calm - N/A   Clear
6:15 AM 79.0 °F - 76.1 °F 91% 29.96 in 7.0 mi SSE 3.5 mph - N/A   Clear
6:35 AM 78.8 °F - 75.7 °F 90% 29.96 in 7.0 mi SE 3.5 mph - N/A   Clear
6:55 AM 78.8 °F - 76.1 °F 91% 29.96 in 7.0 mi Calm Calm - N/A   Clear
7:15 AM 78.8 °F - 76.1 °F 91% 29.97 in 7.0 mi Calm Calm - N/A   Clear
7:35 AM 78.8 °F - 76.1 °F 91% 29.98 in 7.0 mi Calm Calm - N/A   Clear
7:55 AM 78.8 °F - 76.1 °F 91% 29.98 in 5.0 mi SE 3.5 mph - N/A   Clear
8:15 AM 80.1 °F 85.7 °F 76.5 °F 89% 29.98 in 7.0 mi SE 5.8 mph - N/A   Clear
8:35 AM 81.7 °F 89.2 °F 76.6 °F 85% 29.99 in 10.0 mi East 3.5 mph - N/A   Clear
8:55 AM 83.5 °F 91.9 °F 76.1 °F 78% 29.99 in 10.0 mi SSE 6.9 mph - N/A   Clear
9:15 AM 85.5 °F 94.6 °F 75.6 °F 72% 30.00 in 10.0 mi SE 6.9 mph - N/A   Clear
9:35 AM 86.9 °F 96.4 °F 75.2 °F 68% 30.00 in 10.0 mi SSE 10.4 mph - N/A   Clear
9:55 AM 88.2 °F 96.9 °F 74.3 °F 63% 30.00 in 10.0 mi SSE 10.4 mph - N/A   Scattered Clouds
10:15 AM 89.6 °F 98.7 °F 73.9 °F 60% 30.00 in 10.0 mi SSE 10.4 mph - N/A   Clear
10:35 AM 90.3 °F 97.7 °F 72.3 °F 55% 30.00 in 10.0 mi South 11.5 mph - N/A   Clear
10:55 AM 91.2 °F 98.0 °F 71.2 °F 52% 30.00 in 10.0 mi SSE 11.5 mph - N/A   Clear
11:15 AM 92.7 °F 99.4 °F 70.9 °F 49% 30.00 in 10.0 mi SE 11.5 mph - N/A   Clear
11:35 AM 93.2 °F 99.4 °F 70.2 °F 47% 29.99 in 10.0 mi East 9.2 mph - N/A   Clear
11:55 AM 94.6 °F 100.5 °F 69.8 °F 44% 29.98 in 10.0 mi ESE 10.4 mph - N/A   Clear
12:15 PM 95.2 °F 99.9 °F 68.4 °F 41% 29.98 in 10.0 mi SSE 11.5 mph - N/A   Clear
12:35 PM 96.3 °F 101.4 °F 68.2 °F 40% 29.97 in 10.0 mi SE 5.8 mph 16.1 mph N/A   Scattered Clouds
12:55 PM 96.6 °F 101.5 °F 68.0 °F 39% 29.96 in 10.0 mi SSE 10.4 mph 16.1 mph N/A   Scattered Clouds
1:15 PM 97.0 °F 101.0 °F 67.1 °F 37% 29.96 in 10.0 mi ESE 8.1 mph - N/A   Clear
1:35 PM 98.1 °F 102.4 °F 67.3 °F 36% 29.95 in 10.0 mi SSE 9.2 mph 17.3 mph N/A   Clear
1:55 PM 98.2 °F 101.0 °F 64.9 °F 33% 29.94 in 10.0 mi SSW 9.2 mph - N/A   Scattered Clouds
2:15 PM 99.3 °F 102.3 °F 64.9 °F 32% 29.93 in 10.0 mi ESE 5.8 mph - N/A   Scattered Clouds
2:35 PM 100.0 °F 101.8 °F 62.6 °F 29% 29.93 in 10.0 mi SSE 4.6 mph 16.1 mph N/A   Scattered Clouds
2:55 PM 99.9 °F 101.5 °F 62.2 °F 29% 29.91 in 10.0 mi SE 6.9 mph - N/A   Scattered Clouds
3:15 PM 101.1 °F 104.9 °F 65.7 °F 31% 29.90 in 10.0 mi SE 10.4 mph 16.1 mph N/A   Scattered Clouds
3:35 PM 99.5 °F 103.9 °F 66.7 °F 34% 29.89 in 10.0 mi East 4.6 mph 17.3 mph N/A   Mostly Cloudy
3:55 PM 100.4 °F 104.9 °F 66.6 °F 33% 29.89 in 10.0 mi ESE 11.5 mph - N/A   Mostly Cloudy
4:15 PM 100.0 °F 104.9 °F 67.1 °F 34% 29.88 in 10.0 mi SSE 12.7 mph - N/A   Scattered Clouds
4:35 PM 100.2 °F 106.0 °F 67.6 °F 35% 29.88 in 10.0 mi SE 10.4 mph 17.3 mph N/A   Scattered Clouds
4:55 PM 99.9 °F 105.2 °F 67.5 °F 35% 29.88 in 10.0 mi SE 12.7 mph 19.6 mph N/A   Scattered Clouds
5:15 PM 98.4 °F 103.8 °F 68.2 °F 37% 29.88 in 10.0 mi ESE 11.5 mph 18.4 mph N/A   Clear
5:35 PM 97.7 °F 104.3 °F 69.8 °F 40% 29.88 in 10.0 mi East 18.4 mph 24.2 mph N/A   Clear
5:55 PM 96.4 °F 103.7 °F 70.3 °F 43% 29.89 in 10.0 mi East 16.1 mph 23.0 mph N/A   Clear
6:15 PM 95.2 °F 101.7 °F 70.2 °F 44% 29.89 in 10.0 mi East 16.1 mph 20.7 mph N/A   Clear
6:35 PM 94.1 °F 99.5 °F 68.9 °F 44% 29.89 in 10.0 mi East 12.7 mph - N/A   Clear
6:55 PM 93.4 °F 97.6 °F 67.8 °F 43% 29.90 in 10.0 mi ESE 12.7 mph 18.4 mph N/A   Clear
7:15 PM 91.8 °F 96.0 °F 68.4 °F 46% 29.90 in 10.0 mi ESE 12.7 mph 17.3 mph N/A   Clear
7:35 PM 90.5 °F 95.1 °F 69.1 °F 49% 29.91 in 10.0 mi ESE 13.8 mph - N/A   Clear
7:55 PM 89.2 °F 94.5 °F 69.8 °F 53% 29.91 in 10.0 mi ESE 9.2 mph 17.3 mph N/A   Clear
8:15 PM 88.3 °F 93.6 °F 70.2 °F 55% 29.92 in 10.0 mi ESE 10.4 mph - N/A   Clear
8:35 PM 87.1 °F 93.6 °F 72.1 °F 61% 29.92 in 10.0 mi East 9.2 mph - N/A   Clear
8:55 PM 86.2 °F 93.0 °F 72.9 °F 64% 29.93 in 10.0 mi ESE 9.2 mph - N/A   Clear
9:15 PM 85.6 °F 93.0 °F 73.8 °F 67% 29.94 in 10.0 mi East 8.1 mph - N/A   Clear
9:35 PM 84.9 °F 93.3 °F 74.8 °F 72% 29.94 in 10.0 mi East 10.4 mph - N/A   Clear
9:55 PM 84.4 °F 92.7 °F 75.4 °F 74% 29.95 in 10.0 mi East 8.1 mph - N/A   Clear
10:15 PM 84.2 °F 92.6 °F 75.6 °F 75% 29.96 in 10.0 mi East 5.8 mph - N/A   Clear
10:35 PM 83.7 °F 91.7 °F 75.6 °F 76% 29.96 in 10.0 mi ESE 5.8 mph - N/A   Clear
10:55 PM 83.3 °F 91.4 °F 75.7 °F 78% 29.97 in 10.0 mi ESE 4.6 mph - N/A   Clear
11:15 PM 82.8 °F 90.4 °F 75.7 °F 79% 29.97 in 10.0 mi ESE 5.8 mph - N/A   Clear
11:35 PM 82.4 °F 90.1 °F 75.9 °F 81% 29.98 in 10.0 mi Calm Calm - N/A   Clear
11:55 PM 82.0 °F 89.4 °F 76.1 °F 82% 29.98 in 10.0 mi SE 3.5 mph - N/A   Clear